Santa Monica, CA

2:18 PM PDT on April 21, 2018 (GMT -0700)
Santa Monica Municipal

Weather History for KSMO - January, 2012

Change the Weather History Date:

Monday, January 30, 2012

  Actual Average Record
Temperature  
Mean Temperature 56 °F -  
Max Temperature 66 °F 65 °F 84 °F (1962)
Min Temperature 46 °F 46 °F 35 °F (1947)
Degree Days  
Heating Degree Days 9    
Growing Degree Days 6 (Base 50)    
Moisture  
Dew Point 40 °F    
Average Humidity 61    
Maximum Humidity 100    
Minimum Humidity 20    
Precipitation  
Precipitation 0.00 in - - ()
Sea Level Pressure  
Sea Level Pressure 30.01 in    
Wind  
Wind Speed 2 mph (ESE)    
Max Wind Speed 9 mph    
Max Gust Speed -    
Visibility 8 miles    
Events      
Averages and records for this station are not official NWS values.
T = Trace of Precipitation, MM = Missing Value Source: NWS Daily Summary

Daily Weather History Graph

Daily Weather History Graph

Search for Another Location

Airport or City:

Astronomy

Jan. 30, 2012 Rise Set
Actual Time 6:52 AM PST 5:21 PM PST
Civil Twilight 6:26 AM PST 5:48 PM PST
Nautical Twilight 5:56 AM PST 6:18 PM PST
Astronomical Twilight 5:26 AM PST 6:47 PM PST
Moon 10:41 AM PST (1/30) No Moon Set
Length of Visible Light 11h 22m
Length of Day
10h 29m
Waxing Crescent, 47% of the Moon is Illuminated
Jan 30
Waxing Crescent
Jan 30
First Quarter
Feb 7
Full
Feb 14
Last Quarter
Feb 21
New

Hourly Weather History & Observations

Time (PST) Temp. Dew Point Humidity Pressure Visibility Wind Dir Wind Speed Gust Speed Precip Events Conditions
12:51 AM 51.1 °F 27.0 °F 39% 30.05 in 10.0 mi Calm Calm - N/A   Clear
1:51 AM 52.0 °F 26.1 °F 37% 30.04 in 10.0 mi NNE 3.5 mph - N/A   Clear
2:51 AM 52.0 °F 23.0 °F 32% 30.02 in 10.0 mi Calm Calm - N/A   Clear
3:51 AM 48.0 °F 28.9 °F 48% 30.01 in 10.0 mi ENE 3.5 mph - N/A   Clear
4:51 AM 48.0 °F 28.0 °F 46% 30.00 in 10.0 mi ENE 3.5 mph - N/A   Clear
5:51 AM 46.9 °F 28.0 °F 48% 30.01 in 10.0 mi East 4.6 mph - N/A   Clear
6:51 AM 46.9 °F 28.9 °F 50% 30.01 in 10.0 mi ENE 4.6 mph - N/A   Clear
8:51 AM 61.0 °F 28.9 °F 30% 30.02 in 10.0 mi Calm Calm - N/A   Clear
9:51 AM 64.9 °F 23.0 °F 20% 30.04 in 10.0 mi East 4.6 mph - N/A   Clear
10:51 AM 66.0 °F 24.1 °F 20% 30.04 in 10.0 mi East 4.6 mph - N/A   Clear
11:51 AM 66.9 °F 35.1 °F 31% 30.01 in 10.0 mi Variable 3.5 mph - N/A   Clear
12:51 PM 64.9 °F 45.0 °F 48% 29.99 in 10.0 mi SW 6.9 mph - N/A   Clear
1:51 PM 62.1 °F 48.0 °F 60% 29.98 in 10.0 mi SSW 9.2 mph - N/A   Clear
3:51 PM 60.1 °F 48.9 °F 67% 29.98 in 10.0 mi SW 4.6 mph - N/A   Clear
4:51 PM 57.9 °F 51.1 °F 78% 29.98 in 10.0 mi SW 4.6 mph - N/A   Clear
5:51 PM 57.0 °F 52.0 °F 83% 29.99 in 10.0 mi Calm Calm - N/A   Clear
6:51 PM 57.0 °F 52.0 °F 83% 30.00 in 10.0 mi SSW 3.5 mph - N/A   Clear
7:51 PM 55.9 °F 53.1 °F 90% 30.01 in 8.0 mi Calm Calm - N/A   Clear
8:51 PM 55.0 °F 52.0 °F 89% 30.01 in 6.0 mi Calm Calm - N/A   Partly Cloudy
9:51 PM 55.0 °F 52.0 °F 89% 30.01 in 6.0 mi Calm Calm - N/A   Clear
10:51 PM 52.0 °F 50.0 °F 93% 30.01 in 3.0 mi Calm Calm - N/A   Clear
11:15 PM 51.8 °F 51.8 °F 100% 30.01 in 1.5 mi Calm Calm - N/A   Clear
11:29 PM 51.8 °F 50.0 °F 94% 30.01 in 3.0 mi Calm Calm - N/A   Clear
11:51 PM 52.0 °F 50.0 °F 93% 30.01 in 4.0 mi Calm Calm - N/A   Mostly Cloudy